Date String (YYYY-MM-DD hh:mm:ss) UTC,Instrument flags,Ambient pressure (hPa),Sample flow (lpm),Bypass flow (lpm),Sample temperature (°C),Ambient temperature (°C),ASC tube jacket temperature (°C),LED temperature (°C),Box temperature (°C),Sample RH (%),Span deviation,Mass concentration (μg/m³),Mass concentration (μg/m³),Mass concentration (μg/m³)
DateTimeUTC,F1_M11,P_M11,Q1_M11,Q2_M11,T1_M11,T2_M11,T3_M11,T4_M11,T5_M11,U1_M11,ZSPAN_M11,X0_M11,X2_M11,X1_M11
2022-05-11 22:00:00,,0818.4,5.00,0.00,29.2,25.7,00.0,38.2,30.8,12.1,-001.6,0018.10,0005.02,0003.09
2022-05-11 22:01:00,,0818.4,5.01,0.00,29.2,26.2,00.0,38.1,30.8,12.2,-001.9,0019.30,0005.02,0003.12
2022-05-11 22:02:00,,0818.4,5.00,0.00,29.2,26.7,00.0,38.1,30.9,12.2,-001.7,0019.48,0005.05,0003.13
2022-05-11 22:03:00,,0818.4,5.00,0.00,29.2,27.1,00.0,38.1,31.0,12.4,0000.0,0019.24,0005.06,0003.15
2022-05-11 22:04:00,,0818.4,5.00,0.00,29.2,27.5,00.0,38.1,31.1,12.8,0000.0,0018.32,0005.11,0003.16
2022-05-11 22:05:00,,0818.4,5.00,0.00,29.3,27.8,00.0,38.1,31.1,12.7,0000.0,0017.49,0005.08,0003.17
2022-05-11 22:06:00,,0818.3,5.01,0.00,29.3,28.1,00.0,38.1,31.2,12.1,0000.0,0017.35,0005.01,0003.16
2022-05-11 22:07:00,,0818.3,5.01,0.00,29.4,28.3,00.0,38.1,31.3,12.1,0000.0,0016.79,0004.93,0003.15
2022-05-11 22:08:00,,0818.3,5.00,0.00,29.4,28.5,00.0,38.1,31.4,12.2,0000.0,0016.05,0004.96,0003.16
2022-05-11 22:09:00,,0818.3,5.00,0.00,29.5,28.6,00.0,38.2,31.4,12.1,0000.0,0016.66,0005.02,0003.16
2022-05-11 22:10:00,,0818.3,4.99,0.00,29.5,27.5,00.0,38.2,31.2,12.2,0000.0,0016.82,0005.07,0003.16
2022-05-11 22:11:00,,0818.3,5.01,0.00,29.4,25.4,00.0,38.2,30.8,12.0,0000.0,0016.97,0005.04,0003.17
2022-05-11 22:12:00,,0818.2,4.99,0.00,29.2,25.3,00.0,38.2,30.7,12.1,0000.0,0016.52,0005.04,0003.16
2022-05-11 22:13:00,,0818.2,5.00,0.00,29.2,25.7,00.0,38.1,30.8,11.3,0000.0,0016.12,0004.97,0003.14
2022-05-11 22:14:00,,0818.2,5.01,0.00,29.2,26.2,00.0,38.1,30.8,11.7,0000.0,0015.87,0004.87,0003.11
2022-05-11 22:15:00,,0818.2,5.00,0.00,29.2,26.7,00.0,38.1,30.9,11.9,0000.0,0015.74,0004.79,0003.08
2022-05-11 22:16:00,,0818.2,5.01,0.00,29.2,27.2,00.0,38.1,31.0,12.0,0000.0,0016.56,0004.76,0003.02
2022-05-11 22:17:00,,0818.2,5.00,0.00,29.2,27.6,00.0,38.1,31.1,11.8,0000.0,0017.41,0004.79,0002.96
2022-05-11 22:18:00,,0818.2,5.00,0.00,29.3,27.9,00.0,38.1,31.2,11.5,0000.0,0017.43,0004.73,0002.92
2022-05-11 22:19:00,,0818.2,4.99,0.00,29.3,28.1,00.0,38.1,31.2,11.4,0000.0,0018.12,0004.72,0002.88
2022-05-11 22:20:00,,0818.2,4.99,0.00,29.4,28.3,00.0,38.1,31.3,11.5,0000.0,0017.36,0004.68,0002.85
2022-05-11 22:21:00,,0818.2,5.00,0.00,29.5,28.5,00.0,38.2,31.4,11.8,0000.0,0016.96,0004.71,0002.85
2022-05-11 22:22:00,,0818.2,5.01,0.00,29.5,28.7,00.0,38.2,31.5,11.6,0000.0,0016.26,0004.73,0002.83
2022-05-11 22:23:00,,0818.2,5.00,0.00,29.5,28.2,00.0,38.2,31.3,10.9,0000.0,0016.09,0004.74,0002.79
2022-05-11 22:24:00,,0818.1,5.00,0.00,29.4,26.1,00.0,38.2,30.8,11.6,0000.0,0015.82,0004.76,0002.78
2022-05-11 22:25:00,,0818.1,4.99,0.00,29.3,25.3,00.0,38.2,30.7,11.4,0000.0,0016.14,0004.81,0002.76
2022-05-11 22:26:00,,0818.1,5.00,0.00,29.2,25.7,00.0,38.2,30.8,11.2,0000.0,0017.54,0004.87,0002.74
2022-05-11 22:27:00,,0818.0,5.01,0.00,29.2,26.1,00.0,38.1,30.8,12.2,0000.0,0018.54,0004.87,0002.75
2022-05-11 22:28:00,,0818.1,5.00,0.00,29.2,26.6,00.0,38.1,30.9,11.8,0000.0,0019.20,0004.85,0002.77
2022-05-11 22:29:00,,0818.0,5.00,0.00,29.2,27.1,00.0,38.1,30.9,11.6,0000.0,0019.34,0004.88,0002.79
2022-05-11 22:30:00,,0818.0,4.99,0.00,29.2,27.5,00.0,38.1,31.0,11.5,0000.0,0019.57,0004.91,0002.80
2022-05-11 22:31:00,,0818.0,5.00,0.00,29.3,27.8,00.0,38.1,31.1,12.0,0000.0,0020.27,0004.97,0002.80
2022-05-11 22:32:00,,0817.9,5.01,0.00,29.3,28.1,00.0,38.1,31.2,12.7,0000.0,0021.15,0004.98,0002.82
2022-05-11 22:33:00,,0818.0,4.99,0.00,29.4,28.3,00.0,38.1,31.3,12.2,0000.0,0022.38,0005.01,0002.85
2022-05-11 22:34:00,,0818.0,5.00,0.00,29.4,28.5,00.0,38.2,31.4,12.4,0000.0,0022.99,0005.04,0002.90
2022-05-11 22:35:00,,0818.0,5.00,0.00,29.5,28.6,00.0,38.2,31.4,13.0,0000.0,0023.92,0005.06,0002.96
2022-05-11 22:36:00,,0818.0,5.00,0.00,29.5,28.6,00.0,38.2,31.4,13.2,0000.0,0025.01,0005.04,0003.02
2022-05-11 22:37:00,,0818.0,5.01,0.00,29.5,26.8,00.0,38.2,31.0,13.2,0000.0,0024.48,0005.02,0003.06
2022-05-11 22:38:00,,0818.0,5.01,0.00,29.3,25.3,00.0,38.2,30.7,12.9,0000.0,0023.20,0005.06,0003.10
2022-05-11 22:39:00,,0818.0,5.00,0.00,29.3,25.5,00.0,38.2,30.7,13.0,0000.0,0022.09,0005.06,0003.12
2022-05-11 22:40:00,,0818.0,5.01,0.00,29.2,26.0,00.0,38.2,30.8,13.2,0000.0,0022.23,0005.15,0003.14
2022-05-11 22:41:00,,0818.0,4.99,0.00,29.2,26.5,00.0,38.1,30.9,13.5,0000.0,0022.02,0005.20,0003.15
2022-05-11 22:42:00,,0818.0,5.00,0.00,29.2,26.9,00.0,38.1,31.0,13.2,0000.0,0021.43,0005.18,0003.17
2022-05-11 22:43:00,,0818.0,5.00,0.00,29.2,27.4,00.0,38.1,31.0,13.2,0000.0,0023.11,0005.26,0003.19
2022-05-11 22:44:00,,0818.0,4.99,0.00,29.3,27.7,00.0,38.1,31.1,12.9,0000.0,0024.02,0005.37,0003.21
2022-05-11 22:45:00,,0818.0,5.00,0.00,29.3,28.0,00.0,38.1,31.2,13.0,0000.0,0023.35,0005.40,0003.21
2022-05-11 22:46:00,,0818.0,5.00,0.00,29.4,28.2,00.0,38.1,31.3,13.0,0000.0,0022.70,0005.40,0003.22
2022-05-11 22:47:00,,0818.0,5.01,0.00,29.4,28.4,00.0,38.2,31.4,12.8,0000.0,0022.27,0005.44,0003.22
2022-05-11 22:48:00,,0818.0,5.00,0.00,29.5,28.6,00.0,38.2,31.4,12.8,0000.0,0022.86,0005.46,0003.23
2022-05-11 22:49:00,,0818.0,5.00,0.00,29.5,28.7,00.0,38.2,31.5,12.4,0000.0,0023.08,0005.47,0003.22
2022-05-11 22:50:00,,0817.9,5.00,0.00,29.5,27.6,00.0,38.2,31.2,12.2,0000.0,0022.86,0005.52,0003.21
2022-05-11 22:51:00,,0818.0,5.01,0.00,29.4,25.5,00.0,38.2,30.7,12.7,0000.0,0022.27,0005.46,0003.21
2022-05-11 22:52:00,,0817.9,4.99,0.00,29.3,25.3,00.0,38.2,30.7,12.8,0000.0,0022.10,0005.39,0003.21
2022-05-11 22:53:00,,0817.9,5.00,0.00,29.2,25.8,00.0,38.2,30.8,12.9,0000.0,0022.19,0005.37,0003.19
2022-05-11 22:54:00,,0817.9,4.99,0.00,29.2,26.3,00.0,38.1,30.8,13.2,0000.0,0020.86,0005.36,0003.18
2022-05-11 22:55:00,,0817.9,5.02,0.00,29.2,26.8,00.0,38.1,30.9,12.9,0000.0,0020.29,0005.26,0003.17
2022-05-11 22:56:00,,0817.9,5.00,0.00,29.2,27.2,00.0,38.1,31.0,13.2,0000.0,0021.47,0005.22,0003.17
2022-05-11 22:57:00,,0817.9,5.00,0.00,29.3,27.6,00.0,38.1,31.1,12.6,0000.0,0021.69,0005.18,0003.16
2022-05-11 22:58:00,,0817.9,5.01,0.00,29.3,27.9,00.0,38.1,31.2,12.4,0000.0,0021.90,0005.20,0003.15
2022-05-11 22:59:00,,0817.9,5.01,0.00,29.4,28.1,00.0,38.1,31.3,11.9,0000.0,0023.27,0005.29,0003.15
